OSCAR 7 (AO-7) 1 07530U 74089B 26123.62882699 -.00000049 00000+0 -16961-4 0 9998 2 07530 101.9924 136.4079 0012026 214.7140 265.4294 12.53697385354938 PHASE 3B (AO-10) 1 14129U 83058B 26123.20921749 -.00000250 00000+0 00000+0 0 9995 2 14129 25.8943 227.0534 6026722 103.2696 326.7923 2.05872826294563 UOSAT 2 (UO-11) 1 14781U 84021B 26123.85325525 .00001478 00000+0 15641-3 0 9994 2 14781 97.8028 89.9359 0007051 342.4754 17.6219 14.90677988250521 LUSAT (LO-19) 1 20442U 90005G 26123.59957647 .00000132 00000+0 64015-4 0 9997 2 20442 98.8878 144.1707 0011168 342.5261 17.5537 14.34109097896005 EYESAT A (AO-27) 1 22825U 93061C 26123.73784764 .00000109 00000+0 58612-4 0 9993 2 22825 98.6898 191.1625 0007574 225.1174 134.9394 14.30930020700641 ITAMSAT (IO-26) 1 22826U 93061D 26123.73048889 .00000117 00000+0 60845-4 0 9995 2 22826 98.6845 191.0681 0008359 207.5238 152.5503 14.31355696700955 RADIO ROSTO (RS15) 1 23439U 94085A 26123.86013016 -.00000036 00000+0 17890-3 0 9993 2 23439 64.8209 14.9063 0154699 11.9604 348.4929 11.27583802290906 JAS-2 (FO-29) 1 24278U 96046B 26123.57960593 -.00000008 00000+0 29091-4 0 9999 2 24278 98.5289 338.5492 0349297 212.0570 145.8894 13.53272260467132 TECHSAT 1B (GO-32) 1 25397U 98043D 26123.53019132 .00000061 00000+0 46520-4 0 9995 2 25397 99.0063 115.1658 0001475 31.2440 328.8825 14.24419514444972 ISS (ZARYA) 1 25544U 98067A 26123.81265450 .00005869 00000+0 11427-3 0 9990 2 25544 51.6305 159.7493 0007297 20.0235 340.1038 15.49081120564877 PCSAT (NO-44) 1 26931U 01043C 26123.73737096 .00000143 00000+0 84396-4 0 9996 2 26931 67.0524 359.2393 0006413 263.9909 96.0463 14.31938734284086 SAUDISAT 1C (SO-50) 1 27607U 02058C 26123.78334288 .00001317 00000+0 17233-3 0 9994 2 27607 64.5519 266.3578 0075624 270.5579 88.6862 14.82950396257874 CUTE-1 (CO-55) 1 27844U 03031E 26123.56975645 .00000309 00000+0 15277-3 0 9999 2 27844 98.6751 132.6882 0008724 321.2101 38.8451 14.24307791185320 CUBESAT XI-IV (CO-57) 1 27848U 03031J 26123.46561566 .00000260 00000+0 13327-3 0 9995 2 27848 98.6786 132.3343 0008969 341.2811 18.8037 14.23596591185013 MOZHAETS 4 (RS22) 1 27939U 03042A 26123.87582214 .00001155 00000+0 18639-3 0 9991 2 27939 98.3461 306.9860 0012339 53.1833 54.1498 14.73389095209029 CUBESAT XI-V 1 28895U 05043F 26123.69204924 .00001531 00000+0 24903-3 0 9994 2 28895 98.2935 278.3958 0013748 352.0351 8.0635 14.72514390 95208 CUTE-1.7+APD II (CO-65) 1 32785U 08021C 26123.89372970 .00006126 00000+0 39091-3 0 9994 2 32785 97.8261 104.4132 0009174 169.1161 191.0267 15.09034392978513 SEEDS II (CO-66) 1 32791U 08021J 26123.52326605 .00020122 00000+0 66837-3 0 9995 2 32791 97.7524 119.3463 0005107 103.0281 257.1530 15.31235732980454 YUBILEINY (RS30) 1 32953U 08025A 26123.83552091 .00000027 00000+0 11965-3 0 9997 2 32953 82.5082 23.0269 0020544 49.4872 310.7994 12.43177748814189 KKS-1 (KISEKI) 1 33499U 09002H 26123.72709719 .00001495 00000+0 19064-3 0 9996 2 33499 98.1194 45.4690 0009339 76.5966 283.6287 14.83008160929606 SWISSCUBE 1 35932U 09051B 26123.69598377 .00001129 00000+0 23303-3 0 9991 2 35932 98.4063 30.8069 0006895 3.0921 357.0321 14.62394431882650 BEESAT-1 1 35933U 09051C 26123.68248074 .00000944 00000+0 19954-3 0 9998 2 35933 98.3990 30.5210 0005708 19.4089 340.7327 14.61646648882689 ITUPSAT1 1 35935U 09051E 26123.70302262 .00000872 00000+0 19025-3 0 9992 2 35935 98.4077 29.7805 0008082 25.8422 334.3179 14.60372616882244 XIWANG-1 (HOPE-1) 1 36122U 09072B 26123.86040069 -.00000176 00000+0 -34588-3 0 9995 2 36122 100.4001 78.4075 0007378 340.1658 19.9168 13.16436596787173 O/OREOS (USA 219) 1 37224U 10062C 26123.59136919 .00002156 00000+0 20994-3 0 9994 2 37224 71.9702 181.3401 0013635 159.0528 201.1204 14.93563886109982 JUGNU 1 37839U 11058B 26123.63347041 .00000462 00000+0 10160-3 0 9999 2 37839 19.9600 219.1062 0018501 304.9418 188.1216 14.13763515752717 SRMSAT 1 37841U 11058D 26123.89204050 .00000422 00000+0 85075-4 0 9996 2 37841 19.9734 327.5810 0011781 76.8420 314.3522 14.11565536751559 STRAND-1 1 39090U 13009E 26123.42805204 .00000294 00000+0 11340-3 0 9999 2 39090 98.3913 304.7663 0008803 13.1955 346.9460 14.37136555690634 ZACUBE-1 (TSHEPISOSAT) 1 39417U 13066B 26123.87648492 .00005512 00000+0 43003-3 0 9997 2 39417 97.8130 85.9747 0043211 41.9670 318.4851 15.00835925674085 GOMX-1 1 39430U 13066Q 26123.85384793 .00002012 00000+0 30870-3 0 9991 2 39430 97.6508 327.1105 0127896 219.4138 139.7711 14.69289830663404 CUBEBUG-2 (LO-74) 1 39440U 13066AA 26123.84679084 .00003203 00000+0 30054-3 0 9998 2 39440 97.8882 72.6589 0058051 172.9920 187.2124 14.93441761670378 FUNCUBE-1 (AO-73) 1 39444U 13066AE 26123.63401814 .00009569 00000+0 60159-3 0 9993 2 39444 97.8259 94.1780 0036520 358.9000 1.2142 15.08895822672942 UWE-3 1 39446U 13066AG 26123.82793400 .00005346 00000+0 46152-3 0 9997 2 39446 97.8683 79.6263 0051313 106.9054 253.7801 14.96661498670946 UNISAT-6 1 40012U 14033C 26123.68702564 .00003566 00000+0 38771-3 0 9998 2 40012 97.7825 277.2043 0044568 213.6457 146.1928 14.87984211639540 DUCHIFAT-1 1 40021U 14033M 26123.64594417 .00079900 00000+0 10941-2 0 9993 2 40021 98.0518 176.8448 0005024 212.4856 147.6089 15.57116748648803 QB50P1 1 40025U 14033R 26123.58684613 .00009383 00000+0 47027-3 0 9992 2 40025 98.0978 131.6289 0009379 29.8571 330.3194 15.17566171646261 LILACSAT-2 1 40908U 15049K 26123.81105911 .00018295 00000+0 32752-3 0 9996 2 40908 97.4706 159.0027 0008437 64.8275 295.3850 15.49993879588876 FOX-1A (AO-85) 1 40967U 15058D 26123.81100336 .00003992 00000+0 36150-3 0 9991 2 40967 64.7767 56.8608 0128692 73.9867 287.5375 14.90703303106954 CAS-2T & KS-1Q 1 41847U 16066G 26123.84201105 .00000696 00000+0 10804-3 0 9994 2 41847 98.3828 200.0791 0340899 264.0994 92.1252 14.44578283498390 RADFXSAT (FOX-1B) 1 43017U 17073E 26123.61215061 .00009430 00000+0 41477-3 0 9990 2 43017 97.4762 351.7568 0154295 122.1547 239.4760 15.11907448458654 DIWATA-2B 1 43678U 18084H 26123.81917348 .00003633 00000+0 29513-3 0 9991 2 43678 98.1071 318.1343 0012674 323.9622 36.0745 15.00234639409568 ES'HAIL 2 1 43700U 18090A 26123.84316308 .00000152 00000+0 00000+0 0 9995 2 43700 0.0164 278.2348 0001571 149.4363 123.4237 1.00270739 27230 FOX-1CLIFF (AO-95) 1 43770U 18099N 26123.82191797 .00011916 00000+0 46876-3 0 9997 2 43770 97.4412 184.2585 0010168 138.5177 221.6835 15.25754560406457 ITASAT 1 43786U 18099AE 26123.68070153 .00007884 00000+0 38459-3 0 9997 2 43786 97.4060 176.0917 0013887 142.8552 217.3646 15.18483961406152 JY1SAT (JO-97) 1 43803U 18099AX 26123.83765257 .00018076 00000+0 58169-3 0 9995 2 43803 97.4158 186.5610 0007054 77.4893 282.7138 15.32260297406834 UWE-4 1 43880U 18111E 26123.71154353 .00033666 00000+0 75050-3 0 9991 2 43880 97.5865 50.1529 0010561 117.4778 242.7545 15.43459915403917 TIANYAN 01 1 44881U 19093C 26123.81915699 .00001124 00000+0 13316-3 0 9993 2 44881 97.7543 197.1314 0012361 229.4331 130.5810 14.86446720344826 RS-44 & BREEZE-KM R/B 1 44909U 19096E 26123.75446955 .00000027 00000+0 70480-4 0 9991 2 44909 82.5254 9.2333 0216445 248.1964 109.5985 12.79748003296667 SALSAT 1 46495U 20068K 26123.52606125 .00008713 00000+0 31035-3 0 9998 2 46495 97.8858 123.8966 0011719 98.8202 261.4364 15.29141113308531 XW-3 (CAS-9) 1 50466U 21131B 26123.83388872 .00000786 00000+0 25675-3 0 9998 2 50466 98.4960 216.4696 0003249 217.4718 142.6245 14.41315476228722 GREENCUBE (IO-117) 1 53109U 22080E 26122.89410547 -.00000003 00000+0 00000+0 0 9993 2 53109 70.1448 314.0048 0008850 300.3299 59.6485 6.42583286 89155 UMKA 1 (RS40S) 1 57172U 23091G 26123.87109135 .00005657 00000+0 26301-3 0 9992 2 57172 97.5078 182.7485 0011208 273.9954 85.9999 15.20318508157270 CUBESX-HSE 3 (RS42S) 1 57178U 23091N 26123.84963639 .00013260 00000+0 45678-3 0 9999 2 57178 97.5116 188.9103 0009682 244.0130 116.0113 15.30113711157647 MONITOR-3 (RS58S) 1 57180U 23091Q 26123.77973469 .00011455 00000+0 43469-3 0 9996 2 57180 97.5109 186.9249 0010404 252.4688 107.5414 15.26963494157517 MONITOR-4 (RS57S) 1 57182U 23091S 26123.82709029 .00010561 00000+0 39986-3 0 9999 2 57182 97.5103 186.9408 0010345 252.7071 107.3036 15.27061152157523 MONITOR-2 (RS39S) 1 57184U 23091U 26123.83820867 .00005423 00000+0 26592-3 0 9996 2 57184 97.5102 182.4141 0009646 265.6854 94.3278 15.18503548157223 SVYATOBOR 1 (RS60S) 1 57187U 23091X 26123.80385774 .00009404 00000+0 36965-3 0 9997 2 57187 97.5115 187.3956 0008192 242.7698 117.2706 15.25867259157541 VIZARD-METEO (RS38S) 1 57189U 23091Z 26123.82748042 .00016804 00000+0 50220-3 0 9994 2 57189 97.5112 192.4688 0006777 217.5243 142.5528 15.34638177157887 POLYTECH-UNIVERSE 3 (R*) 1 57191U 23091AB 26123.87120147 .00004741 00000+0 23134-3 0 9993 2 57191 97.5076 181.9520 0013947 284.7375 75.2314 15.18700979157221 UTMN 2 (RS27S) 1 57203U 23091AP 26123.82658941 .00012665 00000+0 42524-3 0 9998 2 57203 97.5109 190.4661 0007243 227.0708 132.9926 15.30977073157758 KUZGTU 1 (RS47S) 1 57217U 23091AV 26123.80305749 .00012774 00000+0 45735-3 0 9994 2 57217 97.5089 187.8609 0009774 248.6378 111.3819 15.28860006157593 SONATE-2 1 59112U 24043Q 26123.85925354 .00036966 00000+0 53838-3 0 9995 2 59112 97.5490 271.6633 0006373 9.7223 350.4153 15.55622453120994 MESAT1 1 60209U 24125G 26123.86977801 .00050467 00000+0 65034-3 0 9993 2 60209 97.2349 340.4823 0010681 30.7774 329.4107 15.58808841102659 OOV-CUBE (TUBSAT-30) 1 60240U 24128F 26123.87014502 .00002554 00000+0 20192-3 0 9992 2 60240 61.9967 20.0781 0049800 124.0482 236.5353 15.02551772 99451 COLIBRI-S (RS67S) 1 61746U 24199M 26123.81134153 .00022842 00000+0 46990-3 0 9997 2 61746 97.3053 357.3101 0010707 85.1334 275.1138 15.45905161130550 HORS 3 (RS81S) 1 61753U 24199U 26123.83491331 .00034497 00000+0 57158-3 0 9998 2 61753 97.3038 358.8815 0009118 89.7333 270.4964 15.52043684130671 HORS 4 (RS82S) 1 61754U 24199V 26123.85061322 .00042444 00000+0 61288-3 0 9994 2 61754 97.2991 359.8462 0008228 86.3485 273.8710 15.55810811130741 HORIZON (RS59S) 1 61757U 24199Y 26123.74315922 .00602286 15944-3 13110-2 0 9996 2 61757 97.2849 5.8712 0004556 138.1000 222.0627 15.98284777131120 ARCTICSAT 1 (RS74S) 1 61762U 24199AD 26123.73488683 .00191706 00000+0 96889-3 0 9994 2 61762 97.2941 4.6833 0005117 91.9369 268.2486 15.81046477131049 SIT-2086 1 61764U 24199AF 26123.82428388 .00024613 00000+0 43431-3 0 9999 2 61764 97.3010 359.4943 0008624 75.4254 284.7954 15.50337812127554 HYPERVIEW 1G (RS66S) 1 61772U 24199AP 26123.84602705 .00091189 00000+0 86798-3 0 9992 2 61772 97.2961 1.6566 0008730 87.6463 272.5797 15.66491824127718 ALTAIR (RS65S) 1 61779U 24199AW 26123.82932074 .00012129 00000+0 34479-3 0 9998 2 61779 97.3084 353.4875 0014813 104.3437 255.9453 15.36195141130303 ASRTU-1 (AO-123) 1 61781U 24199AY 26123.84625083 .00008309 00000+0 24587-3 0 9996 2 61781 97.3056 352.9246 0015861 106.4933 253.8054 15.35026425127126 TUSUR GO (RS78S) 1 61782U 24199AZ 26123.64809137 .01502199 16614-2 15070-2 0 9993 2 61782 97.2837 5.0074 0005009 188.8153 171.3044 16.11509475127926 SAMSAT-IONOSPHERE (RS7*) 1 61784U 24199BB 26123.80453458 .00044571 00000+0 68734-3 0 9993 2 61784 97.3012 358.7626 0011395 89.3671 270.8888 15.53960407130667 RTU MIREA 1 (RS51S) 1 61785U 24199BC 26123.85058595 .00050474 00000+0 70554-3 0 9994 2 61785 97.3002 359.4431 0011241 87.2993 272.9549 15.56620720127569 TEVEL2-4 1 63213U 25052D 26123.68854225 .00020584 00000+0 64557-3 0 9991 2 63213 97.3950 20.0504 0000363 219.1338 140.9878 15.33080394 63293 TEVEL2-5 1 63214U 25052E 26123.70437647 .00020079 00000+0 63278-3 0 9998 2 63214 97.3946 20.0260 0000385 226.5029 133.6181 15.32930510 63290 TEVEL2-6 1 63215U 25052F 26123.65034919 .00020095 00000+0 63411-3 0 9995 2 63215 97.3951 19.9571 0000511 241.5558 118.5632 15.32889406 63283 TEVEL2-1 1 63217U 25052H 26123.66475572 .00019622 00000+0 62866-3 0 9999 2 63217 97.3928 19.6462 0000615 318.5912 41.5283 15.32408504 63271 TEVEL2-3 1 63218U 25052J 26123.66086058 .00019793 00000+0 63316-3 0 9997 2 63218 97.3929 19.6589 0000656 317.0757 43.0434 15.32455232 63274 TEVEL2-2 1 63219U 25052K 26123.66527044 .00019596 00000+0 62769-3 0 9995 2 63219 97.3924 19.6481 0000683 319.7349 40.3843 15.32414270 63278 TEVEL2-9 1 63237U 25052AD 26123.65244848 .00018151 00000+0 61600-3 0 9991 2 63237 97.3989 19.1025 0004454 312.8726 47.2140 15.30558127 63219 TEVEL2-7 1 63238U 25052AE 26123.68533403 .00017156 00000+0 58711-3 0 9996 2 63238 97.3993 19.0690 0004514 313.4372 46.6493 15.30298715 63211 TEVEL2-8 1 63239U 25052AF 26123.69308644 .00017236 00000+0 59017-3 0 9994 2 63239 97.3991 19.0552 0004512 314.2439 45.8431 15.30280255 63211 HADES-ICM 1 63492U 25052BN 26123.71584284 .00558830 00000+0 23977-2 0 9999 2 63492 97.3810 27.0480 0005927 159.3029 200.8482 15.83667428 63763 INNOSAT 16 (RS92S7) 1 64878U 25155C 26123.84846767 .00007200 00000+0 29130-3 0 9991 2 64878 97.4542 91.1440 0010073 353.3493 6.7609 15.24971468 73911 GEOSCAN 6 (RS92S6) 1 64879U 25155D 26123.89631536 .00011208 00000+0 39648-3 0 9991 2 64879 97.4537 92.3155 0007033 351.1645 8.9470 15.29308525 73990 GEOSCAN 1 (RS92S1) 1 64880U 25155E 26123.84954015 .00013090 00000+0 45514-3 0 9998 2 64880 97.4534 92.3805 0006971 351.7371 8.3753 15.29833119 73993 239ALFEROV (RS61S) 1 64881U 25155F 26123.87834778 .00016353 00000+0 53509-3 0 9993 2 64881 97.4537 92.8314 0006405 352.7015 7.4132 15.31751903 74024 GEOSCAN 2 (RS92S2) 1 64890U 25155Q 26123.85121660 .00012669 00000+0 43684-3 0 9999 2 64890 97.4534 92.5166 0005816 338.4563 21.6432 15.30119803 74002 GEOSCAN 5 (RS92S5) 1 64891U 25155R 26123.87660395 .00016020 00000+0 51909-3 0 9999 2 64891 97.4529 92.9502 0005656 3.3510 356.7768 15.32076078 74032 GEOSCAN 4 (RS92S4) 1 64892U 25155S 26123.86484346 .00016390 00000+0 52888-3 0 9996 2 64892 97.4532 92.9751 0005688 4.1938 355.9350 15.32203571 74039 GEOSCAN 3 (RS92S3) 1 64893U 25155T 26123.85343564 .00020021 00000+0 61167-3 0 9998 2 64893 97.4523 93.2752 0005396 7.7321 352.4004 15.33908763 74052 INNOSAT 3 (RS92S0) 1 64894U 25155U 26123.86760538 .00038564 00000+0 93891-3 0 9994 2 64894 97.4479 94.4176 0004452 20.5206 339.6219 15.40827392 74133 KNACKSAT-2 1 67683U 98067XZ 26123.38551293 .00042137 00000+0 59112-3 0 9997 2 67683 51.6273 159.1481 0012715 31.7607 328.4149 15.56224547 13292